Wind_Speed
12 12 12 12 13 13 11 11 12 12 11 11 11 10 10 10 10 10 10 10 10 10 10 11 12 12 12 11 13 15 12 11 13 13 13 13 13 15 16 16 16 17 17 17 18 18 18 19 18 18 18 17 17 16 16 16 17 16 16 16 16 15 15 16 16 17 18 18 18 18 18 18 18 17 17 17 16 16 16 15 15 16 17 16 14
14 14 13 13 12 12 12 11 12 11 11 11 10 10 10 10 10 9 9 10 10 10 10 10 11 11 11 11 13 14 12 11 13 13 13 13 14 15 16 17 17 17 17 18 18 18 17 17 17 17 17 17 16 16 16 16 16 16 16 16 15 15 15 16 16 18 18 17 18 19 19 18 17 17 16 16 16 16 16 16 15 16 16 15 14
14 14 13 14 12 12 12 11 11 10 10 10 10 10 10 11 10 10 10 10 10 10 10 10 11 11 11 12 12 13 12 11 12 13 14 14 14 15 16 17 17 17 17 17 17 17 16 16 16 16 16 16 16 16 16 15 15 15 15 15 15 15 15 16 16 17 17 16 17 18 18 18 18 17 16 16 16 16 16 16 16 17 15 14 14
14 13 14 14 12 12 12 10 10 9 10 10 10 10 10 11 10 10 10 10 10 9 9 10 11 12 12 12 11 11 10 11 12 12 14 15 14 15 16 17 17 17 17 17 17 16 16 16 16 16 16 16 16 16 16 15 15 15 15 15 15 15 15 15 16 16 15 15 16 15 16 17 17 16 16 16 16 16 16 16 16 16 15 14 14
14 14 14 14 12 11 11 10 10 9 10 10 10 10 10 10 10 10 9 9 9 9 9 9 10 11 12 13 12 11 10 10 11 11 13 15 13 14 15 16 16 16 16 17 17 17 17 16 16 17 17 16 15 15 15 14 14 15 15 15 15 16 15 15 16 15 16 16 14 14 15 15 16 15 15 15 15 15 15 15 15 15 14 14 13
14 14 13 13 12 11 10 10 9 9 9 9 10 10 10 9 9 9 9 9 8 8 8 9 9 10 11 12 12 11 10 10 10 10 12 14 13 13 14 15 15 15 15 15 16 18 20 19 18 17 17 15 14 14 14 14 14 15 15 15 15 15 15 15 15 15 15 14 13 13 14 15 15 15 14 14 14 14 14 14 15 14 14 13 13
13 13 12 12 11 11 10 9 9 9 9 9 9 9 9 8 9 9 9 9 8 8 8 8 8 8 10 10 10 10 10 10 10 10 11 13 13 13 14 15 14 15 16 15 17 19 20 21 19 17 16 15 14 14 15 15 15 15 15 15 15 15 15 14 14 15 14 12 11 12 13 14 14 14 13 13 13 13 13 13 14 14 13 12 12
13 12 11 12 12 12 11 10 9 8 9 8 8 8 7 7 8 8 8 9 9 9 8 9 8 7 8 8 9 10 10 11 11 10 11 12 14 13 14 14 13 14 16 16 17 18 19 19 18 17 16 15 15 15 16 16 15 15 15 15 14 14 14 13 14 14 13 12 12 12 13 14 14 14 14 13 13 12 12 12 13 14 13 12 13
13 11 11 11 12 12 11 10 9 9 8 8 7 7 7 7 7 8 8 9 9 9 9 9 7 6 8 9 9 10 10 11 11 10 10 11 13 14 14 14 13 14 15 15 16 18 18 17 16 16 17 17 17 17 17 16 15 14 14 13 13 13 13 13 13 13 12 12 13 13 13 13 13 14 13 12 13 12 12 13 13 14 13 12 13
13 11 11 11 12 12 11 10 9 9 8 8 7 7 7 7 7 8 9 9 9 9 9 8 7 6 9 11 10 10 10 10 11 10 10 11 12 14 14 13 13 13 14 15 16 17 17 16 15 16 17 17 16 16 16 15 14 13 12 11 11 12 12 13 12 11 12 12 13 14 14 13 13 14 13 12 12 12 12 13 13 13 12 12 12
12 11 11 12 12 11 10 9 9 9 8 8 8 7 7 8 8 9 9 9 9 9 9 8 6 8 10 11 10 10 10 9 11 12 12 13 13 13 14 14 12 12 14 16 16 16 16 16 16 17 17 16 15 15 15 14 13 12 11 11 11 11 12 12 10 10 12 11 12 13 14 14 14 13 12 12 12 12 12 12 13 12 12 11 11
12 11 11 12 11 10 10 9 9 9 9 8 8 8 8 8 8 9 9 8 8 10 10 8 7 9 11 11 11 11 11 11 12 13 14 15 14 13 14 15 13 11 14 16 16 16 16 16 15 16 16 16 15 14 14 12 11 11 11 11 11 10 11 11 9 11 11 11 12 12 13 14 13 12 11 11 11 12 12 12 13 12 12 11 11
12 11 11 12 10 10 9 8 9 8 8 9 9 8 8 9 9 9 9 9 10 11 11 10 9 10 12 12 12 12 12 11 12 14 16 16 15 15 15 16 13 12 14 15 16 16 16 15 14 15 15 15 15 14 13 11 11 10 11 11 11 11 11 11 10 11 11 11 12 12 13 13 12 11 11 11 11 11 11 12 13 12 12 12 11
12 10 10 11 10 9 8 8 9 7 7 8 9 8 8 9 9 9 10 11 12 12 12 10 10 12 13 13 13 13 13 12 13 16 16 16 15 15 16 15 13 13 14 15 16 15 16 15 14 14 15 15 15 14 12 11 10 10 10 10 10 11 11 9 9 10 10 11 11 12 12 12 12 10 10 10 10 10 11 11 12 12 12 12 11
11 10 10 10 10 9 9 10 9 8 8 9 9 8 9 10 11 10 11 12 12 13 13 10 11 14 14 14 14 14 15 14 15 16 16 17 15 14 16 15 14 14 15 16 16 15 16 16 14 14 15 15 15 13 12 11 10 10 10 10 9 10 10 8 9 9 9 10 11 11 12 11 11 10 9 9 10 10 10 11 11 11 11 12 11
10 9 9 10 10 9 10 11 9 8 9 10 9 9 10 11 12 11 11 13 13 15 15 11 11 15 15 15 16 13 14 16 16 16 15 18 17 14 16 16 16 16 16 16 16 16 16 16 15 14 15 15 14 12 11 11 10 10 9 9 9 10 11 9 8 9 8 10 10 11 11 10 9 9 9 9 9 9 9 10 10 10 10 11 11
10 9 9 10 10 9 10 11 9 8 10 11 10 11 11 12 12 12 12 13 14 17 16 12 11 15 17 18 17 13 15 18 18 17 16 19 18 15 16 17 17 17 16 16 16 16 16 16 15 14 15 15 14 11 11 11 10 10 9 10 10 10 12 9 8 9 8 9 10 10 10 9 9 9 9 8 8 8 9 9 9 10 10 10 10
9 9 8 9 9 9 10 11 8 8 10 11 11 11 12 12 12 12 13 14 17 19 17 13 14 17 19 20 18 16 17 19 19 18 18 20 19 16 16 18 18 17 16 16 17 16 16 17 16 15 15 15 13 12 12 11 10 10 10 10 10 11 13 9 7 9 8 8 9 10 10 10 10 9 8 8 8 8 8 8 9 9 9 9 9
9 8 8 8 9 10 10 11 9 7 8 10 12 12 11 12 13 13 13 15 19 20 19 15 16 19 21 21 19 17 17 18 19 19 19 20 20 18 17 18 18 17 17 18 18 17 17 17 16 16 15 14 13 12 12 10 9 10 10 10 10 11 12 8 7 8 8 8 9 9 9 10 10 9 8 7 8 8 8 9 9 9 9 9 9
8 7 7 8 9 10 10 10 11 8 8 11 12 12 12 12 13 13 13 16 20 22 21 18 18 20 23 23 20 18 18 18 18 18 19 20 21 20 18 18 17 17 18 19 18 18 18 17 16 16 15 14 13 12 11 9 8 8 8 9 10 10 8 6 7 8 8 9 9 8 8 9 9 8 7 6 6 7 8 8 8 8 8 9 10
7 7 6 8 8 10 10 10 10 8 9 12 11 11 13 13 13 14 13 15 18 21 22 19 19 21 24 25 21 19 19 20 19 18 19 21 22 20 19 19 17 16 17 17 16 17 17 17 17 16 14 14 13 11 10 8 8 8 8 9 9 7 6 5 6 7 8 9 9 8 7 8 7 7 6 6 7 7 7 7 7 7 7 8 9
7 7 7 7 8 9 10 10 10 8 8 11 12 11 11 11 13 14 13 14 16 20 21 20 20 22 23 24 21 18 20 21 19 19 19 21 21 20 20 19 17 15 16 16 17 17 17 17 17 16 14 13 12 9 7 7 6 7 8 8 7 5 5 5 6 7 8 8 8 8 7 7 6 6 6 6 7 6 6 7 7 6 7 7 7
7 7 7 7 7 9 9 9 9 8 8 9 10 10 9 10 11 12 12 13 16 18 19 19 19 20 19 21 20 17 19 19 18 20 20 20 20 20 20 19 18 17 17 17 17 16 16 16 16 16 13 12 11 6 4 4 3 5 6 6 4 4 5 4 5 6 7 8 7 7 7 6 6 5 5 5 6 6 6 7 7 6 7 7 7
7 7 7 7 7 8 9 9 9 8 7 8 8 9 9 9 9 10 11 12 14 16 17 17 18 19 19 22 23 21 20 19 18 20 20 19 19 19 19 18 17 17 17 17 17 16 16 15 14 14 10 8 8 5 3 3 2 2 3 4 4 4 4 4 5 6 7 6 6 7 6 5 5 4 4 5 5 5 6 7 7 6 6 7 7
7 7 7 7 7 8 8 8 8 7 7 7 8 8 8 8 9 10 11 11 13 14 15 16 17 17 18 22 24 22 20 17 16 17 17 17 18 17 16 16 15 15 14 15 17 16 14 14 12 10 7 6 6 4 3 3 3 4 3 4 4 4 4 5 5 5 6 5 4 6 5 5 5 4 4 4 5 5 6 6 7 7 6 6 7
7 6 7 8 7 7 8 8 8 7 7 7 7 8 8 8 10 10 11 12 13 14 15 15 15 16 18 19 20 19 17 15 15 16 15 15 15 14 14 14 14 14 13 14 16 15 13 13 10 7 6 6 5 4 3 3 4 5 5 5 4 5 5 5 5 4 5 4 4 6 5 5 4 4 4 4 4 4 5 5 6 6 6 7 7
7 7 7 7 7 7 7 8 8 8 7 7 7 8 8 9 10 10 11 12 13 13 14 14 15 15 16 17 17 17 16 15 15 14 13 13 13 13 14 13 12 12 13 14 14 13 11 8 6 5 5 5 5 5 5 5 5 6 6 5 5 5 5 5 5 4 4 4 4 7 7 7 6 5 5 4 4 4 4 4 5 6 6 6 7
7 7 7 7 8 7 7 8 8 8 7 7 7 8 9 9 9 10 11 12 12 13 14 14 14 14 14 14 15 16 16 15 14 13 12 12 12 12 12 12 11 10 10 11 10 9 6 5 5 5 5 5 5 5 6 6 5 5 6 6 5 5 5 5 5 5 5 4 4 8 8 8 9 8 8 7 6 6 5 5 5 5 6 6 6
8 8 7 8 8 7 7 8 8 8 7 7 8 8 9 9 9 9 10 11 12 12 13 13 14 14 14 13 14 15 16 16 15 14 13 13 12 12 12 12 11 9 9 8 7 6 5 5 5 5 5 5 5 5 5 5 5 5 5 5 5 5 5 5 5 5 5 5 4 7 9 9 10 11 10 10 9 9 9 8 8 8 8 8 7
8 8 8 8 8 8 7 7 8 7 7 7 8 9 8 8 9 9 9 10 11 12 12 12 13 14 14 14 14 15 16 16 16 15 15 14 13 12 12 11 9 8 8 8 6 5 5 5 5 5 5 4 5 4 4 4 5 5 4 4 4 5 5 4 4 5 5 5 4 5 9 11 11 11 11 11 11 11 11 11 11 11 11 11 10
9 8 8 8 8 8 8 8 7 7 7 8 8 9 8 8 8 8 8 9 10 11 12 13 13 14 15 15 15 15 15 16 16 16 15 14 12 11 11 9 8 8 7 7 6 5 5 4 4 4 4 3 4 4 3 4 4 4 4 4 4 4 4 3 3 5 5 5 5 4 7 11 13 12 11 12 12 12 12 12 12 12 12 12 12
9 9 8 8 9 9 8 8 7 7 7 8 8 8 8 7 7 7 8 8 9 11 12 13 14 14 14 14 14 14 15 15 15 14 13 12 11 10 10 8 8 8 7 7 6 5 4 4 3 3 3 2 3 4 3 4 4 3 3 4 3 3 3 2 3 4 4 5 4 4 4 7 9 11 12 12 12 12 12 12 12 12 12 12 13
10 9 9 9 9 9 9 8 8 8 7 7 8 8 8 7 7 7 7 8 9 10 12 13 14 14 13 14 14 14 14 13 13 12 12 12 11 10 9 9 8 8 8 7 6 5 4 4 3 2 2 2 3 3 3 4 4 3 3 4 3 3 2 2 3 3 3 4 4 4 4 4 5 8 10 11 12 12 11 12 11 11 12 12 13
10 10 10 10 9 9 9 8 8 8 8 7 8 8 8 7 7 7 7 8 9 10 12 12 13 12 12 12 12 12 12 12 11 11 11 11 10 10 9 9 9 8 7 6 5 5 5 4 4 3 2 2 3 3 2 3 4 3 3 3 3 3 2 2 3 3 3 4 4 4 4 4 4 4 6 8 11 12 11 11 11 11 11 12 13
10 10 11 10 9 9 8 9 9 8 8 7 8 8 7 7 7 7 7 8 9 10 11 11 11 11 11 11 10 10 11 10 10 9 9 9 9 10 9 9 8 8 7 5 5 6 5 5 4 3 3 2 3 2 2 3 3 4 3 2 3 2 2 3 3 3 3 3 3 4 4 4 4 4 4 5 8 10 11 10 10 10 11 13 14
10 11 11 10 10 9 8 9 10 9 8 8 8 8 7 8 7 7 8 8 8 9 10 10 9 9 9 9 9 9 9 9 8 7 7 8 8 9 9 8 7 6 6 5 5 5 5 5 5 4 3 3 3 2 2 2 2 3 3 2 3 2 1 3 2 3 4 3 3 3 3 4 4 5 5 4 5 7 10 10 10 11 12 14 15
11 11 11 11 10 10 9 10 11 10 9 9 8 8 7 8 8 8 8 7 8 8 8 8 8 8 8 8 8 7 7 7 7 6 6 7 8 8 8 7 6 6 5 4 5 5 4 5 5 4 3 3 3 2 1 2 2 3 3 3 3 2 2 2 2 3 3 2 3 3 3 4 3 4 4 5 5 5 8 9 10 12 14 15 16
11 11 11 10 10 10 9 10 10 10 9 9 8 7 7 7 7 8 8 7 7 7 7 7 7 6 6 7 7 7 6 6 6 6 5 6 7 7 7 6 5 5 4 4 5 4 4 4 5 5 4 4 4 3 3 3 2 3 4 4 3 2 3 3 2 2 2 2 3 3 4 4 3 5 4 5 5 5 6 8 9 11 14 16 17
11 11 11 10 10 10 10 10 10 10 10 9 8 7 7 7 7 8 7 6 6 6 6 6 6 6 6 7 7 7 6 6 6 5 5 5 5 5 5 5 4 4 3 4 4 4 4 4 4 4 4 4 4 4 4 3 2 4 4 5 5 3 3 3 2 2 2 3 3 2 3 4 4 5 5 5 5 6 7 7 8 9 11 15 17
11 11 11 10 10 11 11 11 10 11 10 9 8 8 7 7 7 8 8 7 6 6 6 6 6 6 7 7 7 7 7 7 6 5 5 5 4 4 4 4 4 3 3 3 4 4 3 3 4 4 4 3 3 4 4 3 4 5 5 5 5 4 3 2 1 2 2 3 3 3 3 5 5 5 6 6 6 7 7 7 8 9 9 12 15
11 12 12 11 11 11 11 12 11 11 11 10 9 8 8 8 8 8 8 8 7 6 6 6 6 7 7 7 7 6 7 7 6 5 5 5 4 4 4 4 4 4 3 4 4 4 3 2 2 3 3 4 4 5 5 2 4 5 5 7 6 5 4 2 2 2 3 4 4 4 4 4 5 7 7 7 7 7 7 8 8 9 9 9 11
12 13 12 12 11 11 11 12 12 11 11 10 9 8 8 8 7 7 7 8 7 6 6 6 6 7 7 7 6 6 7 6 5 5 5 5 4 4 4 4 4 4 4 4 4 3 3 2 2 2 3 4 4 7 6 3 4 6 5 6 7 6 5 3 3 4 4 4 5 4 4 4 6 7 7 7 7 7 7 8 8 8 8 8 9
13 13 13 12 12 11 11 11 12 12 11 11 10 9 8 7 6 6 6 6 6 5 5 6 6 6 7 6 6 6 6 6 5 5 5 4 4 4 4 4 4 4 4 4 3 3 3 2 3 3 3 3 4 7 7 6 5 5 4 3 4 5 4 4 5 5 5 5 4 5 4 5 7 6 5 6 7 7 7 7 7 7 7 8 8
13 13 13 13 12 12 12 11 12 12 11 11 10 9 9 7 5 5 5 5 5 5 5 6 6 6 7 6 6 6 6 5 5 5 4 4 4 3 4 4 3 4 4 3 3 3 3 2 3 4 4 3 4 6 7 7 7 5 2 2 2 3 3 4 6 5 6 6 5 6 5 5 7 5 5 6 6 6 6 6 6 6 7 7 7
13 13 14 14 13 13 13 12 12 11 11 11 11 10 10 9 7 6 6 5 5 5 5 6 6 6 6 6 6 6 5 5 5 5 4 4 4 3 3 3 3 3 3 3 3 3 3 2 3 3 4 5 4 5 6 7 8 7 5 3 3 3 3 3 5 5 5 6 6 7 4 4 7 6 5 6 6 6 6 7 6 6 6 6 6
13 13 14 14 13 13 13 13 12 12 11 11 12 11 10 10 9 8 7 6 6 5 5 5 6 6 6 6 6 6 5 5 5 4 4 4 4 3 3 3 3 3 3 3 3 2 2 2 2 2 4 5 4 4 5 6 6 6 6 6 4 4 4 4 3 3 4 5 5 6 5 4 6 6 5 5 6 7 7 7 7 7 7 6 6
14 14 13 14 13 13 14 14 13 12 12 12 12 11 10 11 10 9 8 7 7 6 5 4 5 4 4 5 6 6 6 5 5 5 4 4 4 4 3 3 3 4 3 3 3 2 3 3 2 2 3 4 4 4 4 4 5 5 6 6 6 6 6 6 4 2 3 4 3 5 6 5 5 5 5 5 7 8 8 8 8 8 7 7 6
14 14 14 14 14 13 14 14 13 13 12 13 13 12 11 11 10 8 7 7 6 6 6 5 4 4 4 4 5 6 6 6 5 5 5 5 4 4 4 4 3 3 3 3 3 2 3 3 2 2 2 2 3 4 4 4 3 5 5 5 5 5 5 6 6 3 2 2 3 4 5 6 6 6 5 5 6 7 7 7 7 7 7 7 7
14 14 14 14 14 14 14 14 13 13 13 14 14 13 11 10 10 8 7 6 5 5 6 5 5 4 4 4 4 5 6 6 6 6 6 6 5 5 5 4 4 4 4 3 3 3 3 3 2 2 1 1 2 2 3 4 3 4 5 5 5 4 3 4 4 4 3 2 2 3 4 5 6 6 5 5 6 6 7 5 3 6 7 6 7
14 14 14 14 14 14 14 14 14 13 14 15 14 14 12 11 10 8 7 6 6 5 5 5 5 4 5 5 5 6 6 6 7 7 7 7 6 6 5 5 5 4 4 3 3 3 3 3 3 2 2 1 0 1 1 2 3 3 3 3 3 3 4 3 3 4 3 2 1 2 4 4 5 3 4 5 5 5 6 3 3 7 7 6 7
14 13 14 14 14 14 14 14 14 13 13 14 15 14 13 12 10 9 8 7 6 6 5 5 5 5 5 5 6 6 6 6 7 7 8 7 7 7 6 6 5 5 4 4 4 4 4 4 4 3 2 2 1 1 1 1 1 2 1 1 1 2 3 2 3 3 2 2 2 1 3 2 3 4 3 4 4 4 4 3 5 6 5 5 7
Wind_Direction
149 146 141 139 128 128 130 129 122 119 116 113 110 108 107 105 107 105 104 99 95 92 89 88 88 89 93 101 102 101 102 100 101 106 107 105 103 102 103 100 94 93 97 106 112 112 109 108 107 104 101 98 96 94 92 89 89 92 94 94 94 92 90 89 89 88 86 86 87 85 84 82 81 79 77 76 74 73 74 72 70 72 72 72 71
145 142 140 141 133 133 133 129 123 120 119 117 116 114 112 111 111 109 107 105 104 103 100 99 97 96 92 91 95 102 109 110 108 109 106 103 102 100 102 101 97 95 98 106 110 111 110 109 108 106 102 99 98 95 93 90 89 92 94 94 95 93 91 89 90 89 87 86 85 83 81 79 78 77 75 73 71 70 71 72 70 69 69 70 69
139 139 139 141 139 135 129 124 123 123 123 121 120 118 116 113 112 110 107 106 107 109 110 109 107 106 102 96 98 105 112 114 111 111 109 105 103 101 100 101 102 102 103 105 107 108 108 108 107 106 102 100 98 96 94 91 91 93 94 95 95 93 91 90 91 89 89 86 82 78 77 75 73 73 72 71 70 68 67 67 67 68 69 69 68
136 135 135 139 138 130 122 122 124 125 124 120 119 116 112 110 109 109 107 105 104 103 102 103 105 108 110 107 104 107 112 114 114 117 111 106 104 103 103 102 102 104 107 107 106 104 103 105 106 105 102 100 98 96 94 92 94 96 95 95 95 94 91 91 91 90 88 85 80 77 76 74 71 69 70 69 68 67 65 65 66 67 67 67 66
133 132 133 135 134 129 122 125 126 123 121 117 114 110 107 107 105 105 105 106 106 104 100 96 95 100 107 109 112 115 120 118 121 124 111 107 106 104 104 103 103 105 110 111 108 105 104 105 107 106 103 99 96 95 93 94 98 99 97 97 97 95 93 93 93 90 84 79 76 76 77 75 72 68 69 69 67 66 65 65 65 66 66 65 66
133 133 135 134 132 130 124 122 121 119 116 111 107 103 103 104 102 101 101 103 108 110 106 99 92 97 106 112 120 123 126 121 125 127 112 111 109 103 102 104 109 112 114 113 112 111 113 112 108 107 104 99 97 96 95 95 99 98 97 98 97 96 97 97 95 88 76 72 72 73 74 74 73 70 69 68 66 66 64 65 65 65 65 64 65
133 134 137 134 129 129 122 118 118 115 110 103 102 99 99 98 99 99 99 100 102 106 104 98 92 101 115 121 118 115 119 118 124 127 115 114 111 104 102 104 112 119 119 116 116 115 116 115 111 108 104 100 97 96 97 97 96 94 94 95 96 97 97 95 93 86 74 71 72 70 71 73 74 72 69 68 66 64 62 63 65 65 65 65 66
133 133 134 128 125 126 120 118 116 112 106 101 99 97 96 95 96 99 101 100 97 98 98 97 98 110 124 123 118 116 120 123 127 125 116 113 111 108 108 112 117 121 121 120 119 116 116 116 111 107 104 99 95 95 96 97 96 94 93 95 97 96 94 93 87 80 74 72 70 67 69 73 76 74 69 66 64 63 63 62 65 67 65 65 67
132 129 129 123 123 126 119 119 116 110 105 101 102 100 100 97 96 98 99 101 100 101 101 103 112 122 120 117 119 121 126 129 124 116 112 112 111 109 112 120 120 119 121 122 118 116 118 113 106 104 102 98 95 94 95 94 94 93 93 95 96 96 95 92 83 75 73 72 70 69 69 72 75 73 68 65 63 63 64 62 63 66 65 62 65
131 126 123 119 123 124 118 120 115 109 105 105 105 103 101 97 97 98 99 102 107 109 107 110 122 121 110 112 116 122 131 126 113 108 107 108 106 104 111 118 118 119 121 123 118 116 116 109 105 105 100 97 95 93 92 91 91 91 92 94 97 99 96 87 79 76 75 72 71 72 72 72 73 71 67 64 61 59 58 58 59 61 63 61 61
131 125 119 119 124 120 116 118 113 110 107 107 106 105 103 102 103 103 104 104 108 111 110 116 123 115 108 115 120 124 130 117 109 113 108 105 103 102 112 115 114 121 123 122 117 115 113 106 105 104 100 98 95 92 91 91 90 90 90 93 97 101 95 84 79 79 77 74 73 72 73 72 73 71 67 63 60 58 55 55 55 56 60 62 62
132 124 119 119 123 116 116 115 113 113 110 113 110 110 108 108 107 106 107 105 109 111 112 120 121 115 113 122 126 119 121 123 122 118 109 107 112 117 119 115 115 121 123 121 117 115 111 105 104 103 101 99 97 94 92 91 90 89 88 90 95 99 92 85 82 81 78 75 73 70 71 71 73 71 66 62 59 57 54 55 54 55 55 59 63
130 124 121 120 120 114 116 115 111 114 116 116 112 112 111 109 108 109 114 114 114 112 115 122 121 120 118 122 124 115 117 127 124 112 107 111 123 129 120 115 119 121 119 119 118 116 111 106 102 101 100 97 95 93 92 91 90 88 86 85 90 91 85 80 78 77 75 72 71 69 71 72 72 70 67 62 59 56 52 53 52 50 52 54 59
130 124 123 121 119 114 115 109 105 110 107 104 108 114 109 104 106 108 111 112 112 111 113 118 124 124 120 120 119 117 120 124 118 111 110 114 123 125 117 116 117 117 116 117 117 115 112 107 101 102 100 96 93 90 90 91 90 88 85 83 85 86 79 74 74 74 72 72 72 72 73 73 72 68 65 61 57 55 51 50 48 46 47 49 55
129 125 122 119 117 111 105 98 99 100 91 93 103 109 105 100 102 104 105 109 111 108 106 112 125 122 117 117 115 119 124 123 117 114 117 116 118 119 114 116 114 111 111 113 115 112 110 105 101 102 98 94 90 87 88 87 88 86 84 81 81 86 84 76 75 74 73 74 74 75 76 74 73 67 63 59 55 53 51 47 46 46 44 42 47
128 126 119 116 114 108 98 92 97 98 89 92 97 96 95 95 96 98 100 104 104 100 101 107 118 117 114 113 113 123 126 121 118 120 124 118 117 119 114 114 113 109 109 110 111 109 106 104 103 103 98 94 89 86 86 85 85 83 82 83 81 88 91 81 76 78 74 76 74 76 77 74 73 68 61 55 52 50 48 45 44 46 42 38 38
127 124 117 114 112 109 102 95 94 93 88 87 91 92 92 94 95 96 96 98 97 95 101 108 111 114 113 108 112 126 126 119 122 128 127 117 115 120 118 115 113 112 112 111 110 109 108 107 107 106 102 97 94 91 88 85 84 83 84 85 83 88 92 83 77 82 77 76 75 75 76 74 74 69 61 55 52 49 46 43 42 42 40 38 35
127 123 117 112 110 108 104 101 91 76 80 84 89 93 95 97 96 96 96 95 95 97 103 108 108 110 108 108 116 126 121 116 121 126 121 114 115 121 122 118 115 115 115 113 113 113 110 107 104 102 99 97 98 98 92 86 83 82 82 82 85 86 87 82 80 84 83 80 77 77 76 74 75 71 66 58 51 48 44 39 38 36 32 34 31
125 123 117 110 109 106 104 105 99 84 83 90 93 95 96 96 96 96 95 95 96 100 105 103 101 105 106 109 119 122 114 113 119 121 117 116 119 123 122 118 116 117 117 115 114 112 108 104 101 99 98 97 97 97 93 86 79 78 78 81 85 80 77 79 82 84 83 82 79 78 76 75 75 71 65 57 51 47 40 37 35 32 32 31 24
124 123 116 111 108 105 105 105 107 108 103 98 95 96 96 96 96 93 91 93 95 98 102 103 103 106 106 108 116 117 112 113 117 119 119 120 121 123 122 118 117 119 118 114 112 111 109 106 103 101 100 99 95 93 91 85 77 73 76 82 80 71 72 81 82 80 80 80 79 74 70 72 72 66 59 56 58 49 34 35 34 30 31 27 20
129 126 116 110 106 105 106 107 109 114 110 105 105 102 97 95 92 87 84 88 92 96 99 102 104 104 103 106 111 113 113 113 114 117 118 119 121 124 122 119 120 119 115 112 111 109 106 104 103 101 100 96 90 85 85 83 77 74 81 80 71 69 77 82 78 79 78 78 77 66 60 65 66 59 49 44 49 44 29 31 31 26 24 19 16
133 128 118 110 108 107 106 108 110 111 110 109 111 109 100 97 93 87 84 86 90 95 99 101 101 101 100 102 105 108 110 109 112 116 116 118 121 121 117 117 121 117 111 110 108 104 101 99 99 98 96 93 88 85 83 84 77 73 76 71 68 78 84 77 75 78 75 76 71 57 54 60 64 57 43 37 37 34 27 27 25 23 20 12 11
136 132 123 114 111 108 105 108 108 107 107 106 111 112 106 99 93 91 90 89 90 93 98 102 103 103 102 103 106 109 110 108 114 117 115 117 118 116 115 116 119 115 111 110 107 105 102 99 96 93 90 88 89 93 92 94 81 65 67 70 79 86 84 76 77 76 71 73 63 50 54 61 71 65 40 34 32 27 23 24 19 17 17 9 6
137 131 126 119 114 108 106 108 109 108 106 107 113 113 109 103 99 100 97 94 93 93 96 101 105 106 105 107 111 115 113 112 115 113 113 116 116 116 116 115 116 115 113 113 113 111 105 99 93 90 86 80 87 94 89 96 108 88 85 90 89 84 85 78 75 74 73 74 55 45 51 59 71 68 46 33 28 23 20 22 16 10 12 7 0
135 131 128 122 116 111 110 112 110 110 108 111 114 111 111 108 104 102 101 101 98 98 98 101 105 105 106 108 112 116 112 113 115 111 113 117 116 117 116 115 114 115 115 113 113 111 103 95 89 91 96 88 90 93 83 89 99 98 94 91 88 82 82 76 75 73 79 79 44 40 45 51 61 54 51 40 27 22 17 19 17 11 8 1 356
139 137 133 123 120 117 115 115 112 111 110 110 109 108 108 104 98 97 101 104 104 104 104 103 105 108 110 112 114 116 113 115 115 110 112 114 114 116 115 114 109 108 111 109 107 103 94 89 87 93 104 97 93 94 92 94 95 96 93 89 86 81 78 75 79 76 81 84 39 38 41 42 54 49 49 47 32 26 14 8 9 7 4 357 355
144 141 137 127 126 124 118 114 114 114 113 111 108 107 103 97 95 99 102 103 106 108 107 107 108 111 114 115 116 117 116 116 112 108 111 110 110 111 108 110 110 106 104 101 96 90 86 89 94 96 98 98 101 107 106 100 96 98 96 92 84 79 80 76 78 81 85 92 43 39 44 41 47 50 45 46 41 34 21 5 359 358 357 354 352
146 143 141 135 131 130 123 116 116 117 116 114 110 107 101 98 98 102 103 103 106 107 107 109 111 113 114 115 116 117 118 116 115 112 110 106 106 109 108 111 115 112 104 98 92 91 97 103 100 96 98 103 111 115 112 110 108 102 96 94 90 82 81 77 77 83 80 92 57 37 45 47 48 49 45 44 44 41 34 25 19 13 7 2 354
149 147 142 137 134 134 130 122 120 118 117 115 109 105 102 100 102 103 103 104 106 105 106 109 111 112 111 112 114 115 117 116 115 113 110 108 108 111 113 113 114 114 109 103 99 100 105 96 90 96 109 118 120 118 117 117 113 102 98 96 97 90 86 83 78 83 76 84 82 44 46 54 52 50 47 45 46 44 40 35 33 31 27 22 15
151 151 144 139 138 137 134 125 120 117 117 115 108 106 104 102 102 103 104 105 106 107 108 109 109 109 109 109 109 111 113 113 113 113 112 112 113 113 113 112 109 107 103 98 96 97 96 93 94 101 113 125 120 121 120 111 104 99 98 93 94 90 87 89 86 89 82 76 85 58 50 57 57 52 49 48 48 46 43 40 37 34 31 28 24
152 153 145 140 141 139 134 128 120 117 117 115 111 108 109 106 103 104 105 105 108 110 109 107 106 105 106 106 105 108 110 111 113 114 115 115 116 115 113 111 104 98 97 97 98 97 99 97 97 107 118 128 120 121 119 107 105 104 104 97 92 89 82 86 87 86 83 75 81 76 54 54 55 52 49 47 48 46 44 41 38 35 31 26 21
154 153 146 143 143 138 134 132 125 120 118 118 116 114 114 111 106 105 104 104 105 106 105 105 106 107 106 106 105 106 108 111 113 115 117 117 116 113 110 106 99 96 96 97 98 98 102 99 101 121 132 152 134 120 124 117 111 112 113 103 88 84 73 64 77 81 86 83 79 83 65 49 48 47 46 45 43 42 42 40 38 33 27 23 19
155 150 147 148 142 136 135 135 132 126 124 124 121 119 120 116 110 108 104 103 102 103 103 105 109 109 108 107 106 107 110 112 115 117 117 116 113 111 108 103 98 100 99 97 99 99 99 100 104 113 122 154 135 118 137 126 110 110 106 97 83 72 74 68 77 81 87 94 86 79 74 60 42 37 40 43 41 39 39 38 36 31 24 20 16
151 151 152 150 141 138 139 139 139 133 129 128 126 124 123 119 114 111 109 107 106 105 106 109 110 110 108 107 106 107 110 113 116 117 117 116 115 112 108 106 104 105 104 100 102 100 90 89 92 98 106 113 110 102 116 111 108 104 80 80 81 64 64 72 77 85 84 89 87 74 67 66 53 34 27 32 36 36 37 38 36 31 23 17 14
152 155 152 148 144 142 141 141 143 139 135 131 128 127 124 122 118 115 115 113 113 111 112 113 111 111 110 108 106 106 110 114 117 116 116 117 118 116 112 112 113 112 110 102 102 103 92 82 75 78 92 92 99 103 93 87 95 99 85 78 81 65 67 78 81 100 99 93 85 78 68 60 53 44 34 27 29 31 35 40 38 32 23 18 17
153 155 151 150 148 146 145 144 145 143 140 135 131 129 125 122 119 119 121 118 118 117 116 116 113 112 112 112 110 108 111 115 115 112 110 114 115 117 117 118 120 120 117 109 105 101 88 75 62 60 71 69 78 91 99 96 89 96 105 101 86 73 84 89 91 93 91 88 87 88 81 71 58 44 46 48 34 29 35 43 43 34 28 25 24
155 154 153 155 152 149 152 148 146 146 141 138 135 131 127 124 123 124 127 126 125 124 122 120 117 113 112 117 117 111 111 113 114 110 106 112 115 118 122 124 125 124 120 117 109 97 84 71 53 47 50 43 52 61 65 91 101 106 105 92 85 87 89 84 89 95 98 93 87 91 84 78 66 45 41 50 50 38 35 44 49 42 37 36 31
160 159 157 159 156 152 154 149 147 148 143 141 138 134 132 128 128 132 134 134 132 132 131 129 126 121 119 126 128 121 119 119 118 113 108 114 119 120 124 127 130 128 127 125 113 96 78 63 49 39 29 23 31 35 36 47 77 96 92 88 83 89 99 97 98 104 120 104 87 88 85 79 70 60 52 50 58 56 42 41 45 42 41 41 37
168 164 160 161 159 154 153 151 152 151 147 145 142 140 139 137 137 140 142 143 140 138 141 142 139 133 130 136 138 135 136 136 133 125 118 122 127 127 129 132 133 131 131 128 117 99 74 53 45 31 15 21 25 28 37 38 62 75 78 88 92 92 93 106 120 114 112 103 95 99 94 85 78 70 63 58 60 63 59 49 44 43 43 41 39
171 167 163 166 164 159 156 155 158 156 152 153 153 152 151 150 149 148 151 153 149 146 148 150 146 140 137 142 146 146 148 148 146 141 135 135 134 133 134 135 131 123 117 111 103 92 74 47 39 20 14 28 20 40 49 46 78 87 90 94 94 99 98 99 130 126 123 113 101 92 91 88 83 75 68 66 67 69 67 57 52 49 42 37 37
172 170 169 172 170 167 164 161 163 162 161 163 164 165 161 158 160 159 157 154 151 151 153 153 149 144 141 146 150 151 153 153 153 151 146 141 136 135 134 129 124 113 99 95 90 84 73 46 37 16 25 36 25 46 53 53 96 102 113 108 97 91 96 110 131 128 123 116 109 98 94 94 88 84 80 75 71 74 71 60 54 48 41 38 38
174 175 174 175 176 176 170 166 167 167 169 168 168 171 167 164 164 163 158 153 153 154 155 155 150 147 148 150 151 151 154 154 155 154 149 144 138 135 131 124 118 107 97 97 90 86 78 47 41 29 37 51 49 48 36 21 88 98 108 113 109 96 83 82 93 102 107 109 111 106 97 92 86 84 86 82 74 70 67 59 53 48 43 42 43
178 180 179 176 178 181 176 172 171 172 173 170 170 173 169 166 161 156 155 151 152 150 148 149 147 148 151 154 154 153 157 157 158 156 150 146 140 135 132 124 116 105 99 99 94 97 92 61 53 43 32 57 81 67 41 26 54 90 106 107 118 107 90 81 81 86 98 103 110 108 99 90 88 84 83 81 74 68 62 56 51 48 47 46 46
183 183 181 179 180 183 181 177 176 175 176 173 171 170 167 164 153 148 147 142 146 147 148 153 149 147 152 157 160 160 161 163 163 159 154 151 145 145 142 130 123 111 103 102 106 109 102 79 62 49 30 40 76 80 61 46 44 48 74 95 100 94 86 94 89 79 94 101 97 94 91 90 90 82 75 76 69 65 62 53 50 47 48 51 50
186 186 185 182 181 183 182 181 179 177 178 176 171 166 165 165 157 152 153 149 154 161 166 167 161 160 163 164 165 168 170 169 169 166 163 162 154 157 158 146 137 128 122 117 113 110 102 89 71 54 45 44 55 72 72 62 52 41 36 47 69 71 43 58 77 61 66 88 90 85 77 83 91 84 76 78 70 62 58 50 51 52 52 55 55
188 191 190 185 182 182 182 181 181 179 179 177 174 169 167 169 167 165 168 168 168 173 176 175 169 171 172 167 168 173 177 178 179 177 174 175 173 170 169 164 152 144 141 131 125 130 122 101 76 55 53 51 45 58 72 68 57 49 55 59 49 51 34 13 54 76 54 59 81 94 86 76 95 101 93 88 80 61 46 44 55 56 55 60 60
190 192 192 188 183 181 181 181 180 180 179 178 177 176 175 176 176 175 173 173 173 169 170 170 165 166 168 170 174 177 183 187 187 187 186 186 188 188 185 181 172 162 156 152 154 149 129 109 81 59 49 50 49 50 60 63 63 55 57 69 60 48 46 32 34 86 78 56 59 84 89 88 97 94 79 71 72 65 44 31 46 58 57 63 64
191 192 193 189 183 180 181 181 180 179 178 179 179 181 182 182 184 183 177 178 176 164 165 170 165 165 168 176 183 182 186 193 193 195 195 195 196 200 198 192 187 177 170 175 174 151 131 128 112 84 53 39 51 53 39 31 59 65 44 45 56 50 53 53 48 39 38 80 87 78 81 85 75 58 51 53 52 66 66 37 31 52 58 59 62
192 192 192 189 183 181 181 181 182 180 178 179 181 185 187 186 189 187 179 179 175 164 167 171 169 176 182 186 193 190 190 196 201 202 200 202 204 205 204 199 197 191 189 190 176 162 155 152 157 138 111 55 43 50 44 18 24 61 51 33 32 33 45 60 69 64 45 47 93 102 98 90 71 35 21 45 37 43 65 55 36 53 56 57 55
192 191 191 189 184 182 181 183 186 184 182 181 182 187 189 191 193 192 186 177 172 170 168 166 168 183 195 197 201 199 198 200 204 206 206 208 210 208 207 203 204 203 200 198 185 182 182 176 180 177 156 139 77 20 25 22 12 23 45 43 21 21 36 28 40 63 64 38 356 110 108 100 95 67 13 30 31 32 44 35 40 40 31 44 46
192 190 191 191 188 186 183 186 190 190 188 186 186 189 192 195 196 194 194 185 177 176 175 173 176 187 198 201 202 201 201 202 203 206 206 208 212 214 213 208 207 208 204 203 201 197 194 187 182 179 178 186 197 236 306 312 333 323 336 33 335 13 43 23 31 35 27 23 336 26 76 51 84 98 55 30 15 30 39 10 38 38 2 21 36
Height
839 838 839 838 839 839 842 842 842 841 841 842 841 842 842 843 843 843 844 844 844 844 845 846 848 848 848 847 846 846 849 849 848 848 848 848 848 848 848 848 848 849 849 849 849 849 849 850 850 851 851 851 852 852 852 852 853 853 853 854 854 854 854 854 854 854 854 854 854 854 854 854 854 854 855 855 854 854 855 855 855 854 854 854 854
838 839 840 840 841 841 843 842 842 842 842 843 843 843 843 844 844 845 845 845 845 845 846 847 848 849 849 847 847 848 849 849 849 849 849 849 849 849 849 849 849 850 850 850 850 850 851 851 852 852 852 852 853 853 853 854 854 854 854 855 855 855 856 856 855 855 855 855 855 855 855 855 856 856 856 856 856 856 856 856 856 855 855 855 855
838 840 841 841 843 843 843 842 843 843 843 844 844 844 844 845 845 846 845 846 846 846 847 847 849 850 850 849 849 849 850 850 850 850 849 849 849 849 849 850 850 850 850 851 852 852 852 852 853 853 854 854 854 854 854 855 855 856 856 856 856 857 857 857 857 857 857 856 856 856 856 857 857 857 857 858 857 857 857 857 857 856 856 856 856
838 840 841 842 843 843 843 843 844 844 845 845 845 845 845 846 846 846 846 846 847 847 847 848 849 850 851 851 851 851 851 851 850 850 849 850 850 850 850 850 851 851 851 852 853 853 854 854 855 855 855 855 855 855 855 856 857 857 857 857 857 858 858 858 858 858 858 858 858 858 858 858 859 859 859 859 859 859 859 858 858 858 858 857 857
839 840 841 843 843 844 844 844 845 845 846 846 846 846 846 846 846 847 846 847 847 848 848 849 849 850 851 851 851 851 851 851 850 849 850 850 851 851 851 852 852 852 853 853 854 854 855 855 855 856 856 856 857 856 857 857 858 858 858 859 859 859 859 859 859 859 859 859 859 860 860 860 860 861 861 861 860 860 860 860 859 859 859 858 858
840 840 842 843 844 845 845 845 846 846 847 847 847 847 847 847 847 847 847 847 848 848 849 849 849 850 850 850 850 850 850 850 850 850 850 851 851 852 853 854 854 854 855 855 855 855 855 856 856 856 857 857 858 857 858 858 859 859 859 860 860 860 860 860 860 860 860 860 861 861 861 861 862 862 862 862 862 862 861 861 860 860 860 860 859
840 841 843 843 845 845 846 846 846 847 847 848 848 848 848 848 848 848 848 848 848 849 849 849 849 849 849 849 849 850 850 850 850 850 851 852 853 854 855 855 855 856 856 856 856 856 856 857 857 858 857 858 859 859 859 859 860 860 861 861 861 861 861 862 861 861 861 861 862 862 862 863 863 863 863 863 863 863 863 862 861 861 861 861 861
841 842 843 844 845 845 846 847 847 848 848 848 848 848 848 848 848 848 849 849 849 849 849 850 849 848 849 849 850 850 850 850 851 851 852 853 854 855 856 855 856 857 857 857 857 857 858 858 858 859 859 859 860 860 860 861 861 862 862 862 862 862 863 863 862 862 863 863 863 863 864 864 865 864 865 864 864 864 864 863 862 862 862 862 861
842 843 844 845 845 846 847 847 848 848 848 849 848 849 849 849 848 849 849 849 850 850 850 850 849 848 849 851 851 850 851 851 852 852 853 854 855 857 857 856 857 858 858 858 858 858 859 859 860 860 860 860 861 861 861 862 862 863 863 863 864 864 864 864 864 864 864 864 864 864 865 865 866 865 866 866 865 865 865 864 864 863 863 863 862
842 843 845 846 846 847 848 848 849 849 849 848 849 849 849 849 849 849 850 850 850 850 851 850 849 849 851 852 851 851 851 852 853 854 855 856 857 859 859 858 858 859 859 859 859 859 860 860 861 861 861 861 862 862 862 863 864 864 864 864 865 865 865 865 865 865 865 866 866 866 866 867 867 867 867 867 866 866 865 865 864 864 864 863 863
842 844 845 846 847 847 848 849 849 849 849 849 849 849 849 849 849 850 850 850 850 851 851 850 849 850 852 852 851 851 852 853 854 856 857 859 859 860 860 859 860 861 860 860 860 861 861 862 862 862 862 862 863 863 863 864 865 865 865 865 866 866 866 866 867 866 867 867 867 867 867 868 868 868 868 868 867 867 866 866 865 865 865 864 864
843 844 846 847 847 848 849 849 849 850 849 849 850 849 850 850 850 850 851 851 851 852 851 850 850 851 852 851 851 852 853 853 854 857 859 861 861 859 859 860 862 863 861 861 861 862 862 863 863 863 863 864 864 864 865 865 866 866 866 867 867 867 867 867 868 868 868 868 868 869 869 869 869 869 869 869 868 868 867 867 867 866 866 865 864
843 845 846 847 847 848 849 850 850 849 849 850 850 850 850 850 851 851 851 851 852 852 852 851 851 851 852 852 853 854 854 853 855 858 860 861 861 859 860 861 863 864 863 862 863 863 864 865 865 865 865 865 865 866 866 867 867 867 867 868 868 868 868 868 869 869 869 869 869 870 870 870 870 870 870 870 869 869 868 868 867 867 866 866 865
844 845 846 847 848 849 849 851 850 849 850 851 851 850 850 851 851 851 851 852 852 853 853 852 852 852 852 853 854 855 855 855 856 858 859 861 861 860 861 863 864 865 864 864 864 865 866 866 866 866 866 866 866 867 867 868 868 868 869 869 869 869 869 870 870 870 870 870 870 871 871 871 871 871 871 870 870 870 869 869 868 868 867 866 866
845 845 847 848 848 849 850 851 850 850 851 852 851 851 851 851 852 852 851 852 853 854 854 853 852 853 853 854 855 855 857 857 858 858 859 861 861 860 862 864 865 866 865 865 866 866 866 866 867 867 867 867 867 868 868 869 869 870 870 870 870 870 870 871 871 871 871 871 872 872 872 872 872 872 872 871 871 870 870 870 869 869 868 867 866
845 846 847 848 849 850 851 852 851 850 851 852 851 851 852 851 852 852 852 853 854 855 855 853 852 853 854 855 856 855 857 859 859 858 858 861 861 860 862 865 866 866 866 867 867 867 867 867 868 868 868 868 868 869 869 870 870 871 871 871 871 871 871 872 872 872 873 873 873 873 873 873 873 873 872 872 872 871 871 870 870 869 868 868 867
845 847 848 849 851 851 852 853 851 850 851 852 851 851 852 852 853 852 853 854 855 858 856 852 852 855 857 858 857 856 858 860 860 859 859 862 861 860 862 866 867 868 867 868 868 868 868 868 869 869 869 869 870 871 871 872 872 872 872 872 872 872 872 873 874 874 874 874 874 874 874 874 873 873 873 872 872 872 872 871 870 869 869 868 867
846 847 849 850 851 852 853 854 852 851 852 853 852 852 853 853 853 853 853 855 857 859 856 853 853 857 859 860 857 856 859 862 861 861 861 863 863 861 863 867 868 869 869 869 869 868 868 868 869 870 871 871 872 872 872 873 874 874 874 873 873 874 873 874 875 875 874 875 875 875 875 874 874 874 873 873 873 872 872 871 871 870 869 868 868
847 848 849 851 852 853 854 855 854 852 853 853 853 853 854 854 854 854 854 855 858 859 857 855 856 858 861 862 859 857 861 863 863 863 863 865 865 864 865 867 868 869 870 870 869 869 870 870 870 871 872 873 873 873 874 874 875 875 874 874 874 874 874 875 876 875 875 875 876 876 875 875 874 874 874 874 874 873 873 872 871 870 869 869 868
847 849 850 852 853 854 854 856 856 854 854 855 855 854 854 855 855 855 854 856 858 860 859 857 858 860 862 862 860 859 861 864 864 864 865 867 867 867 868 868 869 870 870 870 871 871 871 871 871 872 873 873 874 875 875 875 876 875 875 875 875 875 875 876 876 876 876 876 876 876 875 875 875 874 874 874 874 874 873 872 871 870 870 869 868
848 849 850 852 853 854 855 856 856 855 855 856 857 856 856 856 857 856 855 856 858 861 860 859 859 860 862 863 861 861 862 864 865 865 866 868 870 870 870 870 870 870 871 871 872 872 872 872 872 873 874 874 875 876 876 876 876 876 876 876 875 876 877 877 877 877 877 877 877 876 875 875 875 875 875 874 874 874 873 872 871 870 870 869 869
847 849 851 852 853 855 855 856 857 856 856 856 857 857 857 857 858 857 857 858 859 861 862 862 861 861 864 865 863 862 864 865 866 867 867 869 871 872 872 871 871 871 872 872 872 872 873 873 873 874 875 875 875 877 878 877 877 877 877 876 877 878 878 878 877 877 877 877 877 876 876 875 875 875 875 875 874 874 873 872 871 870 870 869 869
847 849 851 852 853 855 855 856 857 856 856 856 857 858 858 858 858 859 859 859 860 861 863 864 863 864 865 867 866 864 865 867 867 868 868 870 872 873 873 873 873 873 873 873 873 873 874 874 874 875 876 876 876 878 879 879 878 878 878 878 878 878 878 878 878 878 878 878 877 876 875 875 875 875 875 874 874 873 873 872 871 871 870 869 869
847 848 850 852 853 854 856 856 857 857 857 857 858 858 859 859 859 860 860 861 862 863 864 865 865 866 867 868 869 867 867 868 869 869 870 871 872 873 874 874 875 874 875 875 875 875 875 875 875 875 876 877 877 879 879 879 879 879 879 879 879 879 878 878 878 878 878 878 877 876 876 875 875 875 875 874 874 873 873 872 871 871 870 870 869
847 849 850 852 853 854 856 857 857 857 858 858 858 859 859 860 860 860 861 861 863 864 865 866 866 867 868 870 871 871 870 870 871 871 871 872 872 873 874 875 876 876 876 876 876 876 875 876 876 876 877 878 878 879 880 880 880 880 879 879 879 879 879 878 878 878 878 878 877 876 876 875 875 875 874 874 874 873 873 872 871 871 870 870 869
848 849 851 852 853 855 856 857 858 858 858 858 858 859 859 860 860 861 862 862 864 865 866 867 868 869 870 871 872 873 872 871 872 872 872 873 873 874 875 876 876 876 877 877 876 876 876 877 878 878 878 879 879 880 880 880 880 880 880 879 879 879 879 879 879 879 878 878 877 876 876 875 874 874 874 874 873 873 872 872 871 871 870 870 869
848 849 851 852 853 854 856 857 858 858 858 859 859 859 860 860 861 862 862 863 864 865 867 868 869 870 871 872 872 873 873 873 872 873 873 874 874 875 876 876 877 878 878 877 876 876 878 879 879 879 879 879 880 881 881 881 880 880 880 879 879 879 879 879 879 879 878 878 877 876 876 875 874 874 873 873 873 872 872 871 871 871 870 870 869
848 850 851 852 853 855 856 857 858 858 859 859 859 860 860 861 861 862 863 864 865 866 867 868 869 870 871 872 873 873 874 874 874 874 874 874 875 876 877 878 879 879 879 878 878 879 880 881 880 880 880 880 881 881 881 881 881 880 880 879 879 879 879 879 879 878 878 878 878 876 875 875 874 873 873 873 872 872 871 871 871 870 870 869 869
849 850 851 852 854 855 856 857 858 858 859 859 860 860 861 862 862 863 864 865 866 867 868 869 870 871 872 872 873 874 874 875 875 875 875 876 877 878 878 879 880 880 880 879 880 881 881 881 880 880 881 881 881 882 881 881 880 880 880 879 879 879 879 879 879 878 878 878 878 877 876 875 874 873 873 872 872 872 871 871 870 870 870 869 869
849 850 851 853 854 855 856 857 858 859 860 860 861 861 861 862 863 864 865 866 867 868 869 870 871 871 872 873 873 874 875 875 876 877 877 878 878 879 880 880 881 880 880 880 881 882 881 881 881 881 882 881 882 881 881 880 880 880 879 879 879 878 879 879 878 878 878 878 878 877 876 875 874 874 873 872 872 872 871 871 870 870 869 869 869
848 850 851 853 854 855 856 857 858 859 860 860 861 862 862 863 863 864 865 866 868 869 870 871 871 872 873 873 874 875 875 876 877 878 879 880 880 881 881 881 881 881 881 882 882 883 882 882 882 882 883 882 882 881 881 880 880 879 879 879 879 878 878 878 878 877 877 877 877 877 876 875 874 874 873 873 872 872 871 871 870 870 870 869 869
848 850 851 853 854 855 857 858 859 859 860 861 862 862 863 863 864 865 866 867 868 869 870 871 872 873 874 874 875 875 876 877 878 879 880 881 881 882 882 882 882 883 883 883 884 884 883 883 883 883 883 882 882 881 881 880 879 879 878 878 878 878 878 878 877 877 877 877 877 877 876 876 875 874 874 873 873 872 872 871 870 870 870 870 869
847 849 851 853 854 856 857 858 859 860 861 862 862 863 864 865 865 866 866 867 868 869 870 872 873 874 875 875 876 876 877 878 879 879 880 881 881 882 883 883 884 884 885 885 885 885 884 884 884 883 883 883 882 881 880 879 879 879 878 878 878 878 878 878 877 877 877 877 877 877 876 876 875 875 874 873 873 872 872 871 871 870 870 870 869
847 849 851 852 854 855 857 859 860 861 861 863 863 864 865 865 866 866 867 868 868 870 871 872 874 875 875 876 877 877 878 879 879 880 880 881 882 882 883 884 885 885 886 886 886 885 885 885 884 884 883 883 882 882 880 879 879 878 878 878 878 878 878 877 877 877 877 877 877 876 876 876 876 875 874 874 873 873 872 872 871 871 870 870 869
847 849 851 852 854 855 857 858 860 861 862 863 864 864 865 866 867 867 868 869 869 870 871 873 874 875 876 877 877 878 879 879 880 881 881 882 882 883 884 885 885 886 886 886 886 886 886 886 885 884 883 883 882 882 881 879 879 878 878 878 878 878 878 877 877 877 877 877 876 876 876 876 876 875 875 874 874 873 872 872 871 871 870 870 869
847 849 851 852 854 855 857 858 860 861 862 863 864 865 866 866 867 868 869 869 870 871 872 873 874 875 876 877 878 878 879 880 881 881 882 882 883 883 884 885 886 886 887 886 886 886 886 886 886 885 884 883 882 882 881 879 878 878 878 878 878 878 877 877 877 876 876 876 876 876 876 876 875 875 874 874 874 874 873 872 872 871 871 870 869
847 849 850 852 854 855 857 858 860 861 862 863 864 865 866 867 868 869 869 870 871 872 872 873 874 875 876 877 878 879 880 880 881 881 882 883 883 884 885 885 886 886 886 886 886 886 886 886 886 885 884 883 882 881 880 879 878 877 877 877 877 878 877 877 877 876 877 876 876 876 876 875 875 875 874 874 874 874 874 873 873 872 872 871 870
847 849 850 852 853 855 857 858 859 861 862 863 865 866 866 867 868 869 870 871 871 872 873 874 875 876 877 878 878 879 880 880 881 882 883 884 884 885 885 886 886 886 886 886 886 886 886 886 886 885 884 883 882 881 880 878 877 876 876 877 877 877 877 877 877 876 876 876 875 875 875 875 875 875 875 874 874 874 874 874 873 873 872 872 871
847 848 850 852 853 855 856 858 860 861 862 863 865 866 867 868 869 870 870 871 872 873 873 874 875 876 877 878 879 880 880 881 882 882 883 884 884 885 885 886 886 886 886 886 886 886 886 886 886 885 884 883 882 881 880 879 877 877 876 877 877 877 877 877 876 876 875 875 875 875 874 875 875 875 875 874 874 874 874 874 874 873 873 872 872
847 848 850 852 853 855 856 858 859 860 862 863 865 866 866 868 868 869 870 871 872 873 874 874 875 876 877 878 879 880 881 881 882 883 883 884 884 885 885 886 886 886 886 886 886 886 886 886 886 885 884 883 882 881 880 879 878 877 877 877 877 877 877 876 876 875 875 874 874 874 874 874 875 875 875 875 875 874 874 874 874 874 874 873 872
846 848 850 852 853 854 856 857 859 860 862 863 864 865 866 867 868 869 870 871 872 873 874 875 875 876 877 878 879 880 880 881 882 882 883 883 884 885 885 885 886 886 886 886 886 886 886 886 886 885 884 883 882 881 881 880 877 877 877 876 876 876 876 876 875 874 874 874 874 874 874 874 874 874 875 875 875 875 875 875 874 874 874 874 873
846 848 849 851 853 854 856 857 858 860 861 862 864 865 866 867 868 868 869 870 872 873 874 874 875 876 877 878 879 880 880 881 882 882 882 883 883 884 884 885 885 885 886 886 886 886 886 886 886 885 884 884 883 882 881 879 877 877 876 875 875 876 876 874 874 873 873 873 873 874 874 873 874 874 875 875 875 875 875 875 875 875 874 874 874
845 847 849 851 852 854 855 857 858 859 861 862 863 865 866 867 868 869 870 871 871 872 873 874 875 876 877 878 879 879 880 881 881 882 882 883 883 883 884 884 885 885 886 886 886 886 887 886 886 885 884 883 882 882 882 880 878 877 876 876 875 875 877 875 873 873 873 873 873 873 873 873 874 875 874 875 875 875 875 875 875 875 874 874 874
844 846 847 850 852 854 855 856 858 859 861 862 863 865 866 867 868 869 870 871 872 873 873 874 875 876 877 878 879 879 880 880 881 881 882 882 883 883 884 884 884 885 885 886 886 886 886 886 886 886 885 883 882 882 883 882 881 879 878 877 874 875 880 876 872 873 872 872 872 872 873 873 874 875 874 874 875 875 875 875 875 875 874 874 874
843 844 846 848 850 852 854 856 857 859 860 862 863 865 866 867 868 870 871 871 872 873 873 874 875 876 877 877 878 879 880 880 881 881 882 882 883 883 883 884 884 885 885 885 886 886 886 886 886 886 885 885 883 883 883 883 883 882 880 879 878 881 881 875 873 875 872 871 873 873 874 873 874 875 875 875 875 875 875 875 875 875 875 874 874
841 843 844 846 849 851 853 856 857 858 860 861 863 864 866 867 868 869 870 871 872 872 873 874 874 875 876 877 878 879 879 880 880 881 882 882 883 883 883 884 884 884 885 885 885 886 886 886 886 886 886 885 885 884 883 883 883 883 881 881 881 883 880 875 876 878 875 872 872 873 874 874 874 875 874 874 874 875 876 875 875 875 875 874 874
840 842 843 845 847 850 852 855 856 858 859 861 862 864 865 867 868 868 869 870 871 872 873 873 874 875 876 877 878 878 879 880 880 881 881 882 882 883 883 884 884 884 885 885 885 885 885 886 886 886 886 886 886 885 884 884 883 883 882 882 881 881 880 878 877 878 878 877 873 872 874 874 874 874 874 873 873 876 878 877 876 876 876 875 874
838 840 842 844 846 849 851 853 855 857 859 860 862 864 865 866 867 868 869 870 870 871 873 874 874 875 876 877 877 878 879 879 880 880 881 882 882 883 883 883 884 884 884 884 885 885 885 886 886 886 886 886 886 886 885 884 883 883 883 882 882 881 880 879 878 878 878 878 876 873 874 874 874 874 874 874 874 875 878 878 877 877 876 875 874
837 839 841 843 845 848 850 852 854 856 858 859 861 863 864 866 867 868 869 870 870 871 873 873 874 875 875 876 877 878 878 879 880 880 881 882 882 883 883 883 884 884 884 884 884 885 885 885 886 886 886 886 886 886 886 885 884 884 884 884 883 881 880 879 879 878 877 878 877 874 874 875 876 877 876 875 875 875 876 877 877 876 876 876 876
836 838 840 842 845 847 849 851 853 855 857 858 860 862 864 865 866 867 868 869 870 871 872 873 874 875 875 876 877 877 878 878 879 879 880 881 881 882 882 883 883 883 884 884 884 885 885 885 885 886 886 886 886 886 886 886 885 885 885 885 884 882 881 880 879 878 877 878 876 873 873 874 876 878 878 876 876 876 876 876 876 877 877 876 876
835 837 840 841 844 846 848 851 852 854 856 857 860 861 863 865 866 867 868 869 870 871 872 873 873 874 875 876 876 877 877 878 879 879 880 880 881 882 882 882 883 883 883 884 884 884 884 884 885 885 885 886 886 886 886 886 886 886 885 884 884 882 882 881 880 880 878 877 876 874 873 874 874 876 877 877 877 876 876 876 876 877 878 877 877